STARLINK-1238 (45233 NORAD) Tracking and Keplerian Element Data

This shows tracking and keplerian element data for the satellite.

Feedback or suggestion? Click here.




ElementValue
Catalog45233
NameSTARLINK-1238
Epoch Orbit751
Epoch Day94.25001157
Epoch Year2020
RAAN42.9333
Inclination52.9967
Eccentricity0.0008169
Argument of Perigee315.5736
Mean Anonmoly137.5134
Mean Motion15.62725695
Decay Rate0.00035432
L11 45233U 20012BH 20094.25001157 .00035432 00000-0 39098-3 0 9997
L22 45233 52.9967 42.9333 0008169 315.5736 137.5134 15.62725695 7510

Live tracking and technical data element details for STARLINK-1238 (NORAD 45233). STARLINK-1238 can be tracked NOW for your location showing map with azimuth and elevation plus other details from your city location.

Track the satellite on the map from your city or location and see movement details for azimuth, elevation, latitude, longitude, range, height, and movement on the map or in text.







IsCatalogInMostPopularTable: catalog: 45233, numindb: 7
Update: records affected: 1



GetName: 45233 STARLINK-1238

Hit Count: updated at: Tue, 07 Apr 2020 17:50:33 GMT